Trinidad, Colorado, United States (81082)
Lat: 37.17N, Lon: 104.5W
Wx Zone: COZ088
Local Info
Past Weather Observations for Sunday, March 1, 2015

NOTE: This archive is for the closest National Weather Service station to Trinidad. Information may differ from the station used for current weather conditions.

Click here for Long-term Archive

Time Weather Temperature Dewpoint Humidity Pressure Winds Precip Visibility
23:54
Overcast
Fog And Mist
23°F / -5°C 19°F / -7°C 86% 30.21 in
(1023 mb)
E 3.5 mph
(E 6 kph)
- 5SM
23:46
Overcast
Fog And Mist
23°F / -5°C 19°F / -7°C 86% 30.24 in
(1024 mb)
ENE 3.5 mph
(ENE 6 kph)
- 5SM
22:54
Overcast
23°F / -5°C 18°F / -8°C 80% 30.24 in
(1024 mb)
Calm - 8SM
21:54
Overcast
23°F / -5°C 18°F / -8°C 80% 30.24 in
(1024 mb)
Calm - 8SM
21:41
Overcast
23°F / -5°C 18°F / -8°C 80% 30.24 in
(1024 mb)
Calm - 9SM
20:54
Overcast
23°F / -5°C 18°F / -8°C 80% 30.24 in
(1024 mb)
Calm - 9SM
19:54
Overcast
23°F / -5°C 18°F / -8°C 80% 30.24 in
(1024 mb)
NE 3.5 mph
(NE 6 kph)
- 9SM
18:54
Overcast
23°F / -5°C 16°F / -9°C 74% 30.24 in
(1024 mb)
N 3.5 mph
(N 6 kph)
- 9SM
18:09
Overcast
23°F / -5°C 16°F / -9°C 74% 30.24 in
(1024 mb)
NNE 6.9 mph
(NNE 11 kph)
- 9SM
17:54
Overcast
23°F / -5°C 16°F / -9°C 74% 30.24 in
(1024 mb)
NE 6.9 mph
(NE 11 kph)
- 8SM
17:45
Overcast
23°F / -5°C 16°F / -9°C 74% 30.24 in
(1024 mb)
N 6.9 mph
(N 11 kph)
- 7SM
17:33
Overcast
23°F / -5°C 18°F / -8°C 80% 30.21 in
(1023 mb)
NE 8.1 mph
(NE 13 kph)
- 7SM
16:54
Overcast
23°F / -5°C 18°F / -8°C 80% 30.21 in
(1023 mb)
NNE 6.9 mph
(NNE 11 kph)
- 7SM
15:54
Overcast
Hazy
25°F / -4°C 18°F / -8°C 74% 30.21 in
(1023 mb)
NNE 10.4 mph
(NNE 17 kph)
- 6SM
15:32
Overcast
Hazy
25°F / -4°C 18°F / -8°C 74% 30.21 in
(1023 mb)
NNE 10.4 mph
(NNE 17 kph)
- 6SM
14:54
Overcast
Hazy
25°F / -4°C 18°F / -8°C 74% 30.18 in
(1022 mb)
N 11.5 mph
(N 19 kph)
- 6SM
14:17
Overcast
25°F / -4°C 18°F / -8°C 74% 30.18 in
(1022 mb)
ENE 4.6 mph
(ENE 7 kph)
- 8SM
13:54
Overcast
25°F / -4°C 19°F / -7°C 80% 30.18 in
(1022 mb)
E 4.6 mph
(E 7 kph)
- 8SM
12:54
Overcast
25°F / -4°C 18°F / -8°C 74% 30.18 in
(1022 mb)
E 5.8 mph
(E 9 kph)
- 8SM
11:54
Overcast
23°F / -5°C 18°F / -8°C 80% 30.18 in
(1022 mb)
NNE 5.8 mph
(NNE 9 kph)
- 7SM
10:54
Overcast
Hazy
21°F / -6°C 18°F / -8°C 86% 30.18 in
(1022 mb)
NE 3.5 mph
(NE 6 kph)
- 5SM
10:19
Overcast
Fog And Mist
19°F / -7°C 18°F / -8°C 93% 30.18 in
(1022 mb)
Calm - 5SM
09:54
Overcast
Fog And Mist
19°F / -7°C 16°F / -9°C 86% 30.18 in
(1022 mb)
NW 3.5 mph
(NW 6 kph)
- 5SM
08:54
Overcast
Fog And Mist
18°F / -8°C 16°F / -9°C 93% 30.18 in
(1022 mb)
Calm - 3SM
08:44
Overcast
Fog And Mist
18°F / -8°C 16°F / -9°C 93% 30.15 in
(1021 mb)
Calm - 3SM
08:31
Overcast
Fog And Mist
18°F / -8°C 16°F / -9°C 93% 30.15 in
(1021 mb)
SSW 3.5 mph
(SSW 6 kph)
- 2 1/2SM
07:54
Overcast
Fog And Mist
18°F / -8°C 16°F / -9°C 93% 30.12 in
(1020 mb)
NNW 4.6 mph
(NNW 7 kph)
- 4SM
06:54
Overcast
Fog And Mist
16°F / -9°C 12°F / -11°C 86% 30.09 in
(1019 mb)
SSW 4.6 mph
(SSW 7 kph)
- 4SM
06:36
Overcast
Fog And Mist
16°F / -9°C 14°F / -10°C 93% 30.06 in
(1018 mb)
SW 3.5 mph
(SW 6 kph)
- 4SM
05:54
Overcast
16°F / -9°C 12°F / -11°C 86% 30.06 in
(1018 mb)
SSW 3.5 mph
(SSW 6 kph)
- 7SM
04:54
Overcast
Fog And Mist
16°F / -9°C 12°F / -11°C 86% 30.04 in
(1017 mb)
Calm - 6SM
03:54
Overcast
16°F / -9°C 12°F / -11°C 86% 30.04 in
(1017 mb)
SSW 3.5 mph
(SSW 6 kph)
- 8SM
02:54
Overcast
Fog And Mist
16°F / -9°C 12°F / -11°C 86% 30.04 in
(1017 mb)
Calm - 6SM
01:54
Overcast
16°F / -9°C 12°F / -11°C 86% 30.01 in
(1016 mb)
E 4.6 mph
(E 7 kph)
- 7SM
01:17
Mostly Cloudy
16°F / -9°C 12°F / -11°C 86% 30.01 in
(1016 mb)
Calm - 8SM
00:54
Overcast
16°F / -9°C 12°F / -11°C 86% 30.01 in
(1016 mb)
Calm - 8SM
00:50
Overcast
16°F / -9°C 12°F / -11°C 86% 30.01 in
(1016 mb)
Calm - 8SM
00:05
Overcast
18°F / -8°C 12°F / -11°C 79% 30.01 in
(1016 mb)
Calm - 8SM
Time Weather Temperature Dewpoint Humidity Pressure Winds Precip Visibility


Weather for websites

WeatherForYou.com, LLC is not responsible for any damages or problems caused by this service. Current weather conditions are obtained from the closest station including government and personal stations which may have varying degrees of accuracy. Weather forecasts are derived from the NOAA NDFD. Like all things, this site belongs to Jesus Christ... He just trusts me to maintain it. If you have any questions or comments email webmaster@weatherforyou.com

Copyright © 2015, WeatherForYou.com LLC. All rights reserved.